Stündliche Wetter München

Heute, 1 August, Sonntag

Zeit Temperatur Niederschläge Wind Luftdruck Luftfeuchtigkeit
00:00 +16°C° 1.9 mm 1 m/S 711 mmHg 95%
01:00 +16°C° 1.9 mm 1 m/S 711 mmHg 97%
02:00 +15°C° 0.7 mm 2 m/S 711 mmHg 97%
03:00 +15°C° 0.7 mm 2 m/S 710 mmHg 97%
04:00 +14°C° 0.7 mm 3 m/S 710 mmHg 97%
05:00 +13°C° 5.5 mm 3 m/S 710 mmHg 97%
06:00 +13°C° 5.5 mm 3 m/S 711 mmHg 98%
07:00 +13°C° 5.5 mm 4 m/S 711 mmHg 98%
08:00 +13°C° 1.2 mm 3 m/S 712 mmHg 97%
09:00 +14°C° 1.2 mm 2 m/S 712 mmHg 95%
10:00 +15°C° 1.2 mm 1 m/S 712 mmHg 94%
11:00 +15°C° 1.1 mm 1 m/S 712 mmHg 94%
12:00 +15°C° 1.1 mm 1 m/S 712 mmHg 93%
13:00 +14°C° 1.1 mm 0 m/S 712 mmHg 93%
14:00 +15°C° 0.3 mm 1 m/S 712 mmHg 93%
15:00 +15°C° 0.3 mm 1 m/S 712 mmHg 94%
16:00 +15°C° 0.3 mm 2 m/S 712 mmHg 95%
17:00 +14°C° 0.8 mm 2 m/S 713 mmHg 96%
18:00 +14°C° 0.8 mm 2 m/S 713 mmHg 96%
19:00 +14°C° 0.8 mm 2 m/S 713 mmHg 97%
20:00 +14°C° 0.5 mm 2 m/S 713 mmHg 97%
21:00 +13°C° 0.5 mm 3 m/S 714 mmHg 96%
22:00 +12°C° 0.5 mm 3 m/S 714 mmHg 96%
23:00 +12°C° 0.2 mm 3 m/S 714 mmHg 96%

Morgen, 2 August, Montag

Zeit Temperatur Niederschläge Wind Luftdruck Luftfeuchtigkeit
00:00 +12°C° 0.2 mm 3 m/S 714 mmHg 96%
01:00 +13°C° 0.2 mm 2 m/S 714 mmHg 96%
02:00 +13°C° 0 mm 2 m/S 714 mmHg 96%
03:00 +13°C° 0 mm 2 m/S 714 mmHg 95%
04:00 +13°C° 0 mm 2 m/S 714 mmHg 95%
05:00 +13°C° 0 mm 2 m/S 715 mmHg 94%
06:00 +13°C° 0 mm 2 m/S 715 mmHg 92%
07:00 +14°C° 0 mm 2 m/S 715 mmHg 91%
08:00 +15°C° 0 mm 2 m/S 716 mmHg 86%
09:00 +16°C° 0 mm 2 m/S 716 mmHg 82%
10:00 +17°C° 0 mm 3 m/S 716 mmHg 77%
11:00 +18°C° 0.2 mm 3 m/S 716 mmHg 72%
12:00 +19°C° 0.2 mm 3 m/S 716 mmHg 66%
13:00 +20°C° 0.2 mm 3 m/S 715 mmHg 60%
14:00 +20°C° 0.2 mm 3 m/S 715 mmHg 62%
15:00 +20°C° 0.2 mm 3 m/S 715 mmHg 63%
16:00 +20°C° 0.2 mm 3 m/S 715 mmHg 65%
17:00 +19°C° 0.3 mm 2 m/S 715 mmHg 71%
18:00 +18°C° 0.3 mm 2 m/S 715 mmHg 78%
19:00 +18°C° 0.3 mm 1 m/S 716 mmHg 85%
20:00 +16°C° 0 mm 1 m/S 716 mmHg 87%
21:00 +15°C° 0 mm 1 m/S 716 mmHg 89%
22:00 +14°C° 0 mm 1 m/S 716 mmHg 91%
23:00 +13°C° 0 mm 2 m/S 716 mmHg 92%

übermorgen, 3 August, Dienstag

Zeit Temperatur Niederschläge Wind Luftdruck Luftfeuchtigkeit
00:00 +13°C° 0 mm 2 m/S 716 mmHg 92%
01:00 +12°C° 0 mm 2 m/S 716 mmHg 93%
02:00 +12°C° 0 mm 2 m/S 716 mmHg 93%
03:00 +12°C° 0 mm 2 m/S 716 mmHg 93%
04:00 +12°C° 0 mm 2 m/S 715 mmHg 92%
05:00 +13°C° 0 mm 1 m/S 715 mmHg 91%
06:00 +14°C° 0 mm 1 m/S 715 mmHg 89%
07:00 +15°C° 0 mm 1 m/S 715 mmHg 87%
08:00 +16°C° 0 mm 1 m/S 715 mmHg 80%
09:00 +19°C° 0 mm 1 m/S 715 mmHg 72%
10:00 +21°C° 0 mm 1 m/S 715 mmHg 65%
11:00 +22°C° 0 mm 1 m/S 715 mmHg 62%
12:00 +23°C° 0 mm 1 m/S 715 mmHg 58%
13:00 +23°C° 0 mm 1 m/S 714 mmHg 55%
14:00 +20°C° 1.9 mm 2 m/S 715 mmHg 68%
15:00 +18°C° 1.9 mm 3 m/S 715 mmHg 81%
16:00 +14°C° 1.9 mm 4 m/S 715 mmHg 95%
17:00 +14°C° 0.5 mm 3 m/S 715 mmHg 94%
18:00 +14°C° 0.5 mm 3 m/S 715 mmHg 94%
19:00 +15°C° 0.5 mm 2 m/S 715 mmHg 94%
20:00 +14°C° 0 mm 2 m/S 715 mmHg 94%
21:00 +14°C° 0 mm 2 m/S 715 mmHg 94%
22:00 +13°C° 0 mm 2 m/S 715 mmHg 93%
23:00 +13°C° 0 mm 2 m/S 715 mmHg 93%

4 August, Mittwoch

Zeit Temperatur Niederschläge Wind Luftdruck Luftfeuchtigkeit
00:00 +13°C° 0 mm 2 m/S 715 mmHg 93%
01:00 +13°C° 0 mm 2 m/S 715 mmHg 93%
02:00 +13°C° 0 mm 2 m/S 715 mmHg 93%
03:00 +13°C° 0 mm 1 m/S 714 mmHg 93%
04:00 +13°C° 0 mm 1 m/S 714 mmHg 93%
05:00 +14°C° 0 mm 1 m/S 714 mmHg 93%
06:00 +14°C° 0 mm 1 m/S 715 mmHg 92%
07:00 +15°C° 0 mm 1 m/S 715 mmHg 92%
08:00 +15°C° 0.1 mm 1 m/S 715 mmHg 91%
09:00 +15°C° 0.1 mm 1 m/S 715 mmHg 91%
10:00 +15°C° 0.1 mm 1 m/S 715 mmHg 90%
11:00 +15°C° 0.4 mm 1 m/S 715 mmHg 92%
12:00 +15°C° 0.4 mm 1 m/S 715 mmHg 93%
13:00 +15°C° 0.4 mm 1 m/S 715 mmHg 95%
14:00 +15°C° 1 mm 1 m/S 715 mmHg 95%
15:00 +15°C° 1 mm 1 m/S 716 mmHg 95%
16:00 +15°C° 1 mm 1 m/S 716 mmHg 96%
17:00 +14°C° 0.3 mm 1 m/S 716 mmHg 96%
18:00 +14°C° 0.3 mm 1 m/S 716 mmHg 96%
19:00 +14°C° 0.3 mm 1 m/S 715 mmHg 96%
20:00 +14°C° 0.1 mm 1 m/S 716 mmHg 96%
21:00 +14°C° 0.1 mm 1 m/S 716 mmHg 96%
22:00 +14°C° 0.1 mm 2 m/S 716 mmHg 96%
23:00 +13°C° 0 mm 2 m/S 716 mmHg 96%

5 August, Donnerstag

Zeit Temperatur Niederschläge Wind Luftdruck Luftfeuchtigkeit
00:00 +13°C° 0 mm 2 m/S 716 mmHg 96%
01:00 +13°C° 0 mm 2 m/S 716 mmHg 96%
02:00 +13°C° 0 mm 2 m/S 715 mmHg 96%
03:00 +12°C° 0 mm 2 m/S 715 mmHg 95%
04:00 +12°C° 0 mm 2 m/S 715 mmHg 95%
05:00 +13°C° 0 mm 2 m/S 715 mmHg 94%
06:00 +13°C° 0 mm 2 m/S 715 mmHg 92%
07:00 +14°C° 0 mm 2 m/S 714 mmHg 91%
08:00 +15°C° 0 mm 2 m/S 714 mmHg 82%
09:00 +17°C° 0 mm 2 m/S 714 mmHg 74%
10:00 +19°C° 0 mm 2 m/S 714 mmHg 65%
11:00 +19°C° 0.3 mm 3 m/S 714 mmHg 69%
12:00 +19°C° 0.3 mm 3 m/S 714 mmHg 73%
13:00 +18°C° 0.3 mm 4 m/S 714 mmHg 76%
14:00 +19°C° 0.1 mm 4 m/S 714 mmHg 74%
15:00 +19°C° 0.1 mm 4 m/S 713 mmHg 71%
16:00 +20°C° 0.1 mm 4 m/S 713 mmHg 69%
17:00 +19°C° 0.6 mm 4 m/S 713 mmHg 74%
18:00 +17°C° 0.6 mm 4 m/S 713 mmHg 80%
19:00 +15°C° 0.6 mm 4 m/S 713 mmHg 85%
20:00 +16°C° 0.1 mm 3 m/S 713 mmHg 87%
21:00 +14°C° 0.1 mm 3 m/S 714 mmHg 88%
22:00 +14°C° 0.1 mm 3 m/S 714 mmHg 90%
23:00 +14°C° 0 mm 3 m/S 714 mmHg 90%

6 August, Freitag

Zeit Temperatur Niederschläge Wind Luftdruck Luftfeuchtigkeit
00:00 +13°C° 0 mm 3 m/S 714 mmHg 90%
01:00 +14°C° 0 mm 2 m/S 713 mmHg 90%
02:00 +14°C° 0 mm 2 m/S 713 mmHg 90%
03:00 +14°C° 0 mm 2 m/S 713 mmHg 91%
04:00 +14°C° 0 mm 2 m/S 713 mmHg 91%
05:00 +15°C° 0.2 mm 2 m/S 713 mmHg 92%
06:00 +15°C° 0.2 mm 2 m/S 713 mmHg 92%
07:00 +15°C° 0.2 mm 2 m/S 713 mmHg 92%
08:00 +17°C° 0 mm 3 m/S 713 mmHg 85%
09:00 +18°C° 0 mm 3 m/S 713 mmHg 79%
10:00 +19°C° 0 mm 3 m/S 713 mmHg 72%
11:00 +20°C° 0.1 mm 4 m/S 713 mmHg 69%
12:00 +21°C° 0.1 mm 4 m/S 713 mmHg 66%
13:00 +22°C° 0.1 mm 4 m/S 712 mmHg 63%
14:00 +22°C° 0 mm 3 m/S 712 mmHg 65%
15:00 +21°C° 0 mm 3 m/S 712 mmHg 67%
16:00 +21°C° 0 mm 3 m/S 712 mmHg 69%
17:00 +20°C° 0.1 mm 2 m/S 712 mmHg 73%
18:00 +21°C° 0.1 mm 1 m/S 712 mmHg 78%
19:00 +20°C° 0.1 mm 1 m/S 712 mmHg 82%
20:00 +19°C° 0 mm 1 m/S 712 mmHg 83%
21:00 +18°C° 0 mm 1 m/S 712 mmHg 84%
22:00 +16°C° 0 mm 1 m/S 712 mmHg 86%
23:00 +15°C° 0 mm 0 m/S 712 mmHg 85%
Mehr zeigen

Wir brauchen deine Erlaubnis

Meteoprog und unser Service Anbieter werden persönliche Daten aufbewahren, so wie Cookies, Geräte Bezeichnung oder ähnliche Technologien von deinem Gerät und Prozess, so wie Persönliche Daten Inhalte und Werbungen, genauso wie social Media und den Verkehr zu analysieren.

  • Aufbewahrung und/oder Zugang zu deiner Geräte Informationen.

    Cookies, Geräte Bezeichnung oder andere Informationen, können aufbewahrt oder Zugang zu deinem Gerät erhalten, für den Grund, der oben angegeben wird.

  • Personalisierte Werbung und Inhalte, Messungen, Einblick in das Publikum und Produkt Entwicklung.

    Werbungen und Inhalte können personalisiert werden, basierend auf ein Profil. Mehr Daten können besser personalisierte Werbungen und Inhalte hinzufügen. Werbung und Inhalte können gezeigt und gemessen werden. Einblicke über das Publikum, welche die Werbung gesehen haben und den Inhalt, können abgeleitet werden. So wie Daten können genutzt werden, um es zu verbessern oder die Benutzer Erfahrung zu verbessern das System und die Software.

Wenn du “Ich stimme zu” klickst, erlaubst du uns, die Cookies zu benutzen die Geräte Bezeichnung, den Web oder ähnliche Technologien zu benutzen. Deine Settings, können in deinem Gerät bei deinem Browser geändert werden.

Für den bestimmten Zweck, berechtigten Interessen beruhen darauf, mehr als auf den Inhalt. Du kannst mehr darüber in unseren Privaten und Cookie Politik lesen.